Home > Weather > Schmallenberg > Past weeks

Flag for Germany Weather for the Past 2 Weeks in Schmallenberg, North Rhine-Westphalia, Germany

Now
28 °F

Broken clouds.


Feels Like: 20 °F
Forecast: 33 / 37 °F
Wind: 9 mph from Southeast

Location: Hessen

Current Time: Feb 13, 2016 at 10:18:10 AM

Latest Report: Feb 13, 2016 at 9:50 AM


Visibility: 6 mi

Pressure: 29.27 "Hg

Humidity: 100%

Dew point: 28 °F

Location of SchmallenbergLocation

Historic Weather in Schmallenberg — Graph

°F

Schmallenberg Temperature Yesterday

Maximum temperature yesterday: 36 °F (at 4:50 PM)
Minimum temperature yesterday: 28 °F (at 8:20 AM)
Average temperature yesterday: 31 °F

High & Low Weather Summary for the Past Weeks

 TemperatureHumidityPressure
High50 °F (Feb 6, 1:50 PM)100% (Jan 29, 8:20 AM)30.27 "Hg (Jan 29, 8:20 AM)
Low25 °F (Feb 13, 7:50 AM)76% (Feb 6, 2:50 PM)28.91 "Hg (Feb 9, 5:20 PM)
Average38 °F96%29.76 "Hg
* Reported Jan 29 8:20 AM — Feb 13 8:50 AM, Schmallenberg, Weather by CustomWeather, © 2016

Note: Actual official high and low records may vary slightly from our data, if they occured in-between our weather recording intervals... More about our weather records

Advertising

Schmallenberg Weather History for the Previous 24 Hours

 ConditionsComfort  
Time TempWeatherWind HumidityBarometerVisibility
8:50 AM
Sat, Feb 13
27 °FPartly sunny.7 mph100%29.27 "Hg6 mi
8:20 AM25 °FSunny.6 mph100%29.30 "Hg10 mi
7:50 AM25 °FSunny.9 mph100%29.30 "Hg10 mi
8:50 PM
Fri, Feb 12
30 °FClear.13 mph93%29.36 "Hg10 mi
8:20 PM30 °FClear.15 mph93%29.36 "Hg10 mi
7:50 PM30 °FClear.14 mph93%29.39 "Hg10 mi
7:20 PM30 °FClear.13 mph100%29.39 "Hg10 mi
6:50 PM30 °FClear.13 mph93%29.39 "Hg10 mi
6:20 PM30 °FPassing clouds.13 mph93%29.39 "HgN/A
5:50 PM30 °FPassing clouds.12 mph93%29.39 "HgN/A
5:20 PM32 °FScattered clouds.10 mph87%29.39 "HgN/A
4:50 PM36 °FScattered clouds.10 mph81%29.39 "HgN/A
4:20 PM34 °FScattered clouds.15 mph81%29.39 "HgN/A
3:50 PM34 °FPartly sunny.13 mph81%29.39 "HgN/A
3:20 PM32 °FBroken clouds.14 mph93%29.42 "HgN/A
2:50 PM34 °FBroken clouds.12 mph87%29.42 "HgN/A
2:20 PM34 °FPartly sunny.9 mph93%29.45 "HgN/A
1:50 PM32 °FPartly sunny.9 mph93%29.45 "HgN/A
1:20 PM34 °FBroken clouds.9 mph93%29.45 "HgN/A
12:50 PM32 °FBroken clouds.10 mph100%29.47 "HgN/A
12:20 PM32 °FPartly sunny.12 mph93%29.50 "HgN/A
11:50 AM32 °FPartly sunny.9 mph93%29.50 "HgN/A
11:20 AM32 °FPartly sunny.8 mph93%29.50 "HgN/A
10:50 AM30 °FPartly sunny.9 mph100%29.53 "HgN/A
10:20 AM30 °FPartly sunny.8 mph93%29.53 "HgN/A
Weather by CustomWeather, © 2016

See weather overviewHow to use our weather pages